Time,TemperatureF,DewpointF,PressureIn,WindDirection,WindDirectionDegrees,WindSpeedMPH,WindSpeedGustMPH,Humidity,HourlyPrecipIn,Conditions,Clouds,dailyrainin,SoftwareType,DateUTC
2013-01-26 00:22:00,48.0,-99.9,-100.00,WNW,296,1.0,1.0,-999,-99.99,,,-99.99,,2013-01-26 07:22:00,
2013-01-26 00:33:00,48.0,-99.9,-100.00,WNW,296,1.0,1.0,-999,-99.99,,,-99.99,,2013-01-26 07:33:00,
2013-01-26 01:02:00,50.0,-99.9,-100.00,WSW,254,0.0,3.0,-999,-99.99,,,-99.99,,2013-01-26 08:02:00,
2013-01-26 01:11:00,50.0,-99.9,-100.00,WSW,254,0.0,3.0,-999,-99.99,,,-99.99,,2013-01-26 08:11:00,
2013-01-26 01:22:00,50.0,-99.9,-100.00,WSW,254,0.0,3.0,-999,-99.99,,,-99.99,,2013-01-26 08:22:00,
2013-01-26 01:32:00,50.0,-99.9,-100.00,NE,48,0.0,2.0,-999,-99.99,,,-99.99,,2013-01-26 08:32:00,
2013-01-26 01:40:00,49.0,-99.9,-100.00,West,270,2.0,2.0,-999,-99.99,,,-99.99,,2013-01-26 08:40:00,
2013-01-26 01:42:00,50.0,-99.9,-100.00,NE,48,0.0,2.0,-999,-99.99,,,-99.99,,2013-01-26 08:42:00,
2013-01-26 01:54:00,49.0,-99.9,-100.00,West,278,1.0,2.0,-999,-99.99,,,-99.99,,2013-01-26 08:54:00,
2013-01-26 02:02:00,49.0,-99.9,-100.00,West,278,1.0,2.0,-999,-99.99,,,-99.99,,2013-01-26 09:02:00,
2013-01-26 02:22:00,49.0,-99.9,-100.00,West,270,2.0,2.0,-999,-99.99,,,-99.99,,2013-01-26 09:22:00,
2013-01-26 02:32:00,49.0,-99.9,-100.00,West,270,2.0,2.0,-999,-99.99,,,-99.99,,2013-01-26 09:32:00,
2013-01-26 03:32:00,47.0,-99.9,-100.00,WSW,257,3.0,3.0,-999,-99.99,,,-99.99,,2013-01-26 10:32:00,
2013-01-26 03:43:00,47.0,-99.9,-100.00,WSW,257,3.0,3.0,-999,-99.99,,,-99.99,,2013-01-26 10:43:00,
2013-01-26 03:50:00,49.0,-99.9,-100.00,NW,321,0.0,0.0,-999,-99.99,,,-99.99,,2013-01-26 10:50:00,
2013-01-26 03:52:00,47.0,-99.9,-100.00,WSW,257,3.0,3.0,-999,-99.99,,,-99.99,,2013-01-26 10:52:00,
2013-01-26 04:20:00,47.0,-99.9,-100.00,West,271,2.0,3.0,-999,-99.99,,,-99.99,,2013-01-26 11:20:00,
2013-01-26 04:22:00,51.0,-99.9,-100.00,ENE,76,1.0,4.0,-999,-99.99,,,-99.99,,2013-01-26 11:22:00,
2013-01-26 04:32:00,49.0,-99.9,-100.00,NW,321,0.0,0.0,-999,-99.99,,,-99.99,,2013-01-26 11:32:00,
2013-01-26 04:42:00,49.0,-99.9,-100.00,NW,321,0.0,0.0,-999,-99.99,,,-99.99,,2013-01-26 11:42:00,
2013-01-26 05:02:00,47.0,-99.9,-100.00,West,271,2.0,3.0,-999,-99.99,,,-99.99,,2013-01-26 12:02:00,
2013-01-26 05:12:00,47.0,-99.9,-100.00,West,271,2.0,3.0,-999,-99.99,,,-99.99,,2013-01-26 12:12:00,
2013-01-26 06:33:00,47.0,-99.9,-100.00,West,277,1.0,2.0,-999,-99.99,,,-99.99,,2013-01-26 13:33:00,
2013-01-26 06:42:00,47.0,-99.9,-100.00,West,277,1.0,2.0,-999,-99.99,,,-99.99,,2013-01-26 13:42:00,
2013-01-26 08:22:00,47.0,-99.9,-100.00,East,99,0.0,0.0,-999,-99.99,,,-99.99,,2013-01-26 15:22:00,
2013-01-26 08:33:00,47.0,-99.9,-100.00,East,99,0.0,0.0,-999,-99.99,,,-99.99,,2013-01-26 15:33:00,
2013-01-26 09:00:00,51.0,-99.9,-100.00,West,276,0.0,2.0,-999,-99.99,,,-99.99,,2013-01-26 16:00:00,
2013-01-26 09:03:00,49.0,-99.9,-100.00,North,5,1.0,1.0,-999,-99.99,,,-99.99,,2013-01-26 16:03:00,
2013-01-26 09:13:00,49.0,-99.9,-100.00,North,5,1.0,1.0,-999,-99.99,,,-99.99,,2013-01-26 16:13:00,
2013-01-26 09:22:00,49.0,-99.9,-100.00,North,5,1.0,1.0,-999,-99.99,,,-99.99,,2013-01-26 16:22:00,
2013-01-26 09:53:00,51.0,-99.9,-100.00,West,276,0.0,2.0,-999,-99.99,,,-99.99,,2013-01-26 16:53:00,
2013-01-26 11:03:00,54.0,-99.9,-100.00,NW,309,0.0,1.0,-999,-99.99,,,-99.99,,2013-01-26 18:03:00,
2013-01-26 11:12:00,54.0,-99.9,-100.00,NW,309,0.0,1.0,-999,-99.99,,,-99.99,,2013-01-26 18:12:00,
2013-01-26 11:30:00,57.0,-99.9,-100.00,WNW,298,2.0,4.0,-999,-99.99,,,-99.99,,2013-01-26 18:30:00,
2013-01-26 12:03:00,57.0,-99.9,-100.00,WNW,298,2.0,4.0,-999,-99.99,,,-99.99,,2013-01-26 19:03:00,
2013-01-26 12:12:00,57.0,-99.9,-100.00,WNW,298,2.0,4.0,-999,-99.99,,,-99.99,,2013-01-26 19:12:00,
2013-01-26 12:23:00,57.0,-99.9,-100.00,WNW,298,2.0,4.0,-999,-99.99,,,-99.99,,2013-01-26 19:23:00,
2013-01-26 12:30:00,59.0,-99.9,-100.00,NNW,327,2.0,4.0,-999,-99.99,,,-99.99,,2013-01-26 19:30:00,
2013-01-26 12:53:00,59.0,-99.9,-100.00,NW,318,1.0,5.0,-999,-99.99,,,-99.99,,2013-01-26 19:53:00,
2013-01-26 13:03:00,59.0,-99.9,-100.00,NNW,327,2.0,4.0,-999,-99.99,,,-99.99,,2013-01-26 20:03:00,
2013-01-26 13:12:00,59.0,-99.9,-100.00,NNW,327,2.0,4.0,-999,-99.99,,,-99.99,,2013-01-26 20:12:00,
2013-01-26 13:22:00,59.0,-99.9,-100.00,NNW,327,2.0,4.0,-999,-99.99,,,-99.99,,2013-01-26 20:22:00,
2013-01-26 14:00:00,63.0,-99.9,-100.00,North,3,3.0,3.0,-999,-99.99,,,-99.99,,2013-01-26 21:00:00,
2013-01-26 14:32:00,62.0,-99.9,-100.00,North,354,1.0,3.0,-999,-99.99,,,-99.99,,2013-01-26 21:32:00,
2013-01-26 14:43:00,62.0,-99.9,-100.00,North,354,1.0,3.0,-999,-99.99,,,-99.99,,2013-01-26 21:43:00,
2013-01-26 14:50:00,63.0,-99.9,-100.00,NNW,342,2.0,5.0,-999,-99.99,,,-99.99,,2013-01-26 21:50:00,
2013-01-26 14:52:00,63.0,-99.9,-100.00,North,3,3.0,3.0,-999,-99.99,,,-99.99,,2013-01-26 21:52:00,
2013-01-26 15:32:00,63.0,-99.9,-100.00,NNW,342,2.0,5.0,-999,-99.99,,,-99.99,,2013-01-26 22:32:00,
2013-01-26 15:42:00,63.0,-99.9,-100.00,NNW,342,2.0,5.0,-999,-99.99,,,-99.99,,2013-01-26 22:42:00,
2013-01-26 18:32:00,55.0,-99.9,-100.00,NE,49,2.0,5.0,-999,-99.99,,,-99.99,,2013-01-27 01:32:00,
2013-01-26 18:42:00,55.0,-99.9,-100.00,NE,49,2.0,5.0,-999,-99.99,,,-99.99,,2013-01-27 01:42:00,
2013-01-26 18:52:00,55.0,-99.9,-100.00,NE,49,2.0,5.0,-999,-99.99,,,-99.99,,2013-01-27 01:52:00,
2013-01-26 20:20:00,54.0,-99.9,-100.00,North,7,4.0,5.0,-999,-99.99,,,-99.99,,2013-01-27 03:20:00,
2013-01-26 21:02:00,54.0,-99.9,-100.00,North,7,4.0,5.0,-999,-99.99,,,-99.99,,2013-01-27 04:02:00,
2013-01-26 21:12:00,54.0,-99.9,-100.00,North,7,4.0,5.0,-999,-99.99,,,-99.99,,2013-01-27 04:12:00,
2013-01-26 23:02:00,53.0,-99.9,-100.00,NNE,19,1.0,2.0,-999,-99.99,,,-99.99,,2013-01-27 06:02:00,
2013-01-26 23:11:00,53.0,-99.9,-100.00,NNE,19,1.0,2.0,-999,-99.99,,,-99.99,,2013-01-27 06:11:00,
2013-01-26 23:40:00,54.0,-99.9,-100.00,NE,37,2.0,3.0,-999,-99.99,,,-99.99,,2013-01-27 06:40:00,